TimeCDT,TemperatureF,Dew PointF,Humidity,Sea Level PressureIn,VisibilityMPH,Wind Direction,Wind SpeedMPH,Gust SpeedMPH,PrecipitationIn,Events,Conditions,WindDirDegrees,DateUTC
12:53 AM,18.0,10.9,74,30.25,10.0,North,10.4,-,N/A,,Clear,350,2013-03-17 05:53:00
1:53 AM,17.1,10.0,74,30.25,10.0,North,11.5,-,N/A,,Clear,350,2013-03-17 06:53:00
2:53 AM,16.0,9.0,74,30.25,10.0,North,11.5,-,N/A,,Clear,360,2013-03-17 07:53:00
3:53 AM,15.1,9.0,77,30.22,10.0,NNE,11.5,-,N/A,,Clear,20,2013-03-17 08:53:00
4:53 AM,14.0,7.0,74,30.21,10.0,NNE,10.4,-,N/A,,Clear,20,2013-03-17 09:53:00
5:53 AM,12.9,7.0,77,30.20,10.0,NE,11.5,-,N/A,,Clear,40,2013-03-17 10:53:00
6:53 AM,12.9,6.1,74,30.22,10.0,NE,9.2,-,N/A,,Clear,50,2013-03-17 11:53:00
7:53 AM,12.9,5.0,71,30.23,10.0,ENE,10.4,-,N/A,,Clear,70,2013-03-17 12:53:00
8:53 AM,15.1,6.1,68,30.22,10.0,East,11.5,-,N/A,,Clear,80,2013-03-17 13:53:00
9:53 AM,17.1,9.0,71,30.22,10.0,ESE,16.1,-,N/A,,Clear,110,2013-03-17 14:53:00
10:53 AM,19.9,12.0,71,30.19,10.0,ESE,17.3,21.9,N/A,,Clear,120,2013-03-17 15:53:00
11:53 AM,23.0,14.0,68,30.17,10.0,SE,16.1,-,N/A,,Clear,130,2013-03-17 16:53:00
12:53 PM,25.0,15.1,66,30.12,10.0,ESE,17.3,-,N/A,,Scattered Clouds,120,2013-03-17 17:53:00
1:53 PM,27.0,17.1,66,30.09,10.0,SE,16.1,-,N/A,,Overcast,130,2013-03-17 18:53:00
2:53 PM,28.0,18.0,66,30.04,10.0,SE,16.1,-,N/A,,Overcast,130,2013-03-17 19:53:00
3:53 PM,30.0,19.9,66,30.00,10.0,SE,18.4,24.2,N/A,,Partly Cloudy,130,2013-03-17 20:53:00
4:27 PM,30.2,21.2,69,29.96,10.0,SE,18.4,-,N/A,,Mostly Cloudy,130,2013-03-17 21:27:00
4:53 PM,30.9,21.0,67,30.00,10.0,SE,13.8,21.9,N/A,,Mostly Cloudy,130,2013-03-17 21:53:00
5:53 PM,30.0,21.9,72,29.97,10.0,ESE,16.1,-,N/A,,Mostly Cloudy,120,2013-03-17 22:53:00
6:53 PM,30.9,23.0,72,29.95,10.0,SE,18.4,-,N/A,,Overcast,130,2013-03-17 23:53:00
7:53 PM,30.0,21.9,72,29.95,10.0,ESE,20.7,26.5,N/A,,Overcast,120,2013-03-18 00:53:00
8:53 PM,30.0,23.0,75,29.95,10.0,SE,16.1,-,N/A,,Overcast,130,2013-03-18 01:53:00
9:53 PM,28.9,23.0,78,29.94,10.0,SE,17.3,-,N/A,,Overcast,130,2013-03-18 02:53:00
10:53 PM,28.9,23.0,78,29.93,10.0,SE,15.0,-,N/A,,Overcast,130,2013-03-18 03:53:00
11:53 PM,30.0,24.1,79,29.89,10.0,SE,16.1,-,N/A,,Overcast,140,2013-03-18 04:53:00